SWA3596 PHOG-PHNL

Flight info

Callsign SWA3596
Flight time 0h 28m
Altitude 14000
Route MAUI5 OGG LNY JULLE5
Aircraft B38M/M-SDE1FGHILORVWXY/HB1

Departure

Time 2026-04-21 22:21
Airport Kahului International Airport (PHOG)

Arrival

Time 2026-04-21 22:50
Airport Daniel K. Inouye International Airport (PHNL)
Time Latitude Longitude Altitude Speed Heading
2026-04-21 21:54 20.89293 -156.43682 47 ft 0 kts 305°
2026-04-21 22:13 20.89281 -156.43663 45 ft 4 kts 305°
2026-04-21 22:13 20.89265 -156.43640 47 ft 4 kts 305°
2026-04-21 22:13 20.89250 -156.43617 42 ft 4 kts 304°
2026-04-21 22:13 20.89238 -156.43592 46 ft 4 kts 283°
2026-04-21 22:14 20.89238 -156.43565 43 ft 4 kts 249°
2026-04-21 22:14 20.89253 -156.43542 47 ft 4 kts 220°
2026-04-21 22:14 20.89272 -156.43527 45 ft 1 kts 215°
2026-04-21 22:18 20.89270 -156.43528 47 ft 1 kts 215°
2026-04-21 22:18 20.89246 -156.43546 45 ft 9 kts 213°
2026-04-21 22:18 20.89199 -156.43581 46 ft 15 kts 216°
2026-04-21 22:18 20.89104 -156.43653 47 ft 18 kts 215°
2026-04-21 22:19 20.89010 -156.43708 47 ft 7 kts 179°
2026-04-21 22:19 20.88996 -156.43704 47 ft 1 kts 156°
2026-04-21 22:19 20.88986 -156.43697 45 ft 3 kts 141°
2026-04-21 22:19 20.88968 -156.43672 47 ft 5 kts 121°
2026-04-21 22:20 20.88950 -156.43627 47 ft 8 kts 88°
2026-04-21 22:20 20.88990 -156.43577 45 ft 21 kts 34°
2026-04-21 22:20 20.89330 -156.43329 50 ft 95 kts 37°
2026-04-21 22:20 20.90049 -156.42792 46 ft 154 kts 33°
2026-04-21 22:21 20.90993 -156.42121 497 ft 168 kts 23°
2026-04-21 22:21 20.92132 -156.41725 1153 ft 179 kts 11°
2026-04-21 22:21 20.93361 -156.41497 1906 ft 182 kts
2026-04-21 22:21 20.94692 -156.41511 2310 ft 204 kts 343°
2026-04-21 22:22 20.95975 -156.42339 2679 ft 228 kts 321°
2026-04-21 22:22 20.97256 -156.43478 3190 ft 244 kts 320°
2026-04-21 22:22 20.98573 -156.44654 3974 ft 254 kts 320°
2026-04-21 22:22 20.99979 -156.45907 4551 ft 270 kts 320°
2026-04-21 22:23 21.01428 -156.47196 5439 ft 272 kts 320°
2026-04-21 22:23 21.02896 -156.48503 6271 ft 277 kts 320°
2026-04-21 22:23 21.04383 -156.49827 7089 ft 279 kts 320°
2026-04-21 22:23 21.05889 -156.51149 7901 ft 281 kts 319°
2026-04-21 22:24 21.07039 -156.52811 8728 ft 280 kts 288°
2026-04-21 22:24 21.07190 -156.54876 9525 ft 283 kts 257°
2026-04-21 22:24 21.06285 -156.56734 10272 ft 288 kts 229°
2026-04-21 22:24 21.04866 -156.58336 10677 ft 306 kts 232°
2026-04-21 22:25 21.03515 -156.60186 10993 ft 325 kts 233°
2026-04-21 22:25 21.02105 -156.62139 11470 ft 338 kts 233°
2026-04-21 22:25 21.00651 -156.64141 12215 ft 341 kts 233°
2026-04-21 22:25 20.99182 -156.66144 13034 ft 345 kts 233°
2026-04-21 22:26 20.97684 -156.68183 13714 ft 352 kts 234°
2026-04-21 22:26 20.96187 -156.70216 13927 ft 353 kts 234°
2026-04-21 22:26 20.94633 -156.72340 13954 ft 371 kts 234°
2026-04-21 22:26 20.93015 -156.74557 13962 ft 383 kts 234°
2026-04-21 22:27 20.91358 -156.76814 13971 ft 389 kts 233°
2026-04-21 22:27 20.89679 -156.79089 13999 ft 390 kts 233°
2026-04-21 22:27 20.87996 -156.81361 14021 ft 391 kts 233°
2026-04-21 22:27 20.86306 -156.83639 14038 ft 391 kts 233°
2026-04-21 22:28 20.84617 -156.85912 14050 ft 391 kts 233°
2026-04-21 22:28 20.82926 -156.88186 14045 ft 390 kts 233°
2026-04-21 22:28 20.81238 -156.90457 14043 ft 390 kts 233°
2026-04-21 22:28 20.79548 -156.92728 14046 ft 390 kts 233°
2026-04-21 22:29 20.78150 -156.95191 14040 ft 386 kts 250°
2026-04-21 22:29 20.77579 -156.97964 14062 ft 383 kts 268°
2026-04-21 22:29 20.77862 -157.00786 14046 ft 382 kts 285°
2026-04-21 22:29 20.78664 -157.03492 14056 ft 382 kts 288°
2026-04-21 22:30 20.79499 -157.06196 14047 ft 382 kts 289°
2026-04-21 22:30 20.80346 -157.08887 14041 ft 382 kts 289°
2026-04-21 22:30 20.81205 -157.11579 14033 ft 382 kts 289°
2026-04-21 22:30 20.82068 -157.14265 14022 ft 382 kts 289°
2026-04-21 22:31 20.82932 -157.16948 14015 ft 382 kts 289°
2026-04-21 22:31 20.83801 -157.19643 14010 ft 382 kts 289°
2026-04-21 22:31 20.84654 -157.22293 14004 ft 383 kts 289°
2026-04-21 22:31 20.85522 -157.24990 13991 ft 383 kts 289°
2026-04-21 22:32 20.86387 -157.27679 13987 ft 383 kts 289°
2026-04-21 22:32 20.87254 -157.30375 13977 ft 383 kts 289°
2026-04-21 22:32 20.88117 -157.33061 13975 ft 382 kts 289°
2026-04-21 22:32 20.88980 -157.35747 13972 ft 382 kts 289°
2026-04-21 22:33 20.89842 -157.38431 13974 ft 381 kts 289°
2026-04-21 22:33 20.90699 -157.41104 13972 ft 375 kts 289°
2026-04-21 22:33 20.91526 -157.43685 13982 ft 358 kts 289°
2026-04-21 22:33 20.92314 -157.46143 13969 ft 342 kts 289°
2026-04-21 22:34 20.93075 -157.48519 13738 ft 334 kts 289°
2026-04-21 22:34 20.93826 -157.50867 13327 ft 332 kts 289°
2026-04-21 22:34 20.94571 -157.53196 12928 ft 330 kts 289°
2026-04-21 22:34 20.95312 -157.55512 12551 ft 328 kts 289°
2026-04-21 22:35 20.96046 -157.57809 12150 ft 326 kts 289°
2026-04-21 22:35 20.96778 -157.60102 11729 ft 325 kts 289°
2026-04-21 22:35 20.97506 -157.62383 11364 ft 323 kts 289°
2026-04-21 22:35 20.98234 -157.64663 11021 ft 323 kts 289°
2026-04-21 22:36 20.99649 -157.69101 10691 ft 306 kts 289°
2026-04-21 22:36 21.00325 -157.71224 10551 ft 297 kts 289°
2026-04-21 22:36 21.00984 -157.73291 10412 ft 289 kts 289°
2026-04-21 22:37 21.01615 -157.75273 10280 ft 281 kts 289°
2026-04-21 22:37 21.02305 -157.77193 10142 ft 272 kts 297°
2026-04-21 22:37 21.03196 -157.78942 10045 ft 262 kts 298°
2026-04-21 22:37 21.04050 -157.80650 9970 ft 262 kts 297°
2026-04-21 22:38 21.04917 -157.82414 9921 ft 271 kts 297°
2026-04-21 22:38 21.05797 -157.84223 9925 ft 277 kts 297°
2026-04-21 22:38 21.06683 -157.86061 9929 ft 278 kts 297°
2026-04-21 22:38 21.07570 -157.87906 9927 ft 278 kts 297°
2026-04-21 22:39 21.08451 -157.89747 9926 ft 278 kts 297°
2026-04-21 22:39 21.09334 -157.91593 9925 ft 278 kts 297°
2026-04-21 22:39 21.10215 -157.93436 9942 ft 278 kts 297°
2026-04-21 22:39 21.11096 -157.95281 9888 ft 279 kts 297°
2026-04-21 22:40 21.11965 -157.97102 9634 ft 279 kts 297°
2026-04-21 22:40 21.12846 -157.98948 9319 ft 279 kts 297°
2026-04-21 22:40 21.13730 -158.00800 9000 ft 278 kts 297°
2026-04-21 22:40 21.14605 -158.02635 8693 ft 276 kts 297°
2026-04-21 22:41 21.15475 -158.04461 8390 ft 275 kts 297°
2026-04-21 22:41 21.16343 -158.06283 8089 ft 273 kts 297°
2026-04-21 22:41 21.17206 -158.08094 7794 ft 272 kts 297°
2026-04-21 22:41 21.18064 -158.09894 7492 ft 270 kts 297°
2026-04-21 22:42 21.18917 -158.11687 7197 ft 269 kts 297°
2026-04-21 22:42 21.19767 -158.13472 6900 ft 268 kts 297°
2026-04-21 22:42 21.20612 -158.15249 6603 ft 267 kts 297°
2026-04-21 22:42 21.21455 -158.17022 6302 ft 266 kts 297°
2026-04-21 22:43 21.22293 -158.18785 5989 ft 265 kts 297°
2026-04-21 22:43 21.23233 -158.20466 5760 ft 261 kts 313°
2026-04-21 22:43 21.24695 -158.21542 5574 ft 254 kts 340°
2026-04-21 22:43 21.26402 -158.21835 5467 ft 244 kts 358°
2026-04-21 22:44 21.28059 -158.21885 5415 ft 232 kts 358°
2026-04-21 22:44 21.29646 -158.21908 5293 ft 224 kts
2026-04-21 22:44 21.31110 -158.21435 5015 ft 222 kts 32°
2026-04-21 22:44 21.32157 -158.20241 4701 ft 222 kts 63°
2026-04-21 22:45 21.32539 -158.18668 4401 ft 222 kts 86°
2026-04-21 22:45 21.32545 -158.17013 4102 ft 222 kts 91°
2026-04-21 22:45 21.32528 -158.15357 3807 ft 221 kts 90°
2026-04-21 22:45 21.32524 -158.13725 3504 ft 217 kts 90°
2026-04-21 22:46 21.32523 -158.12119 3216 ft 213 kts 90°
2026-04-21 22:46 21.32523 -158.10552 2927 ft 205 kts 90°
2026-04-21 22:46 21.32522 -158.09040 2660 ft 202 kts 90°
2026-04-21 22:46 21.32523 -158.07557 2393 ft 196 kts 90°
2026-04-21 22:47 21.32523 -158.06118 2143 ft 190 kts 90°
2026-04-21 22:47 21.32523 -158.04724 1897 ft 184 kts 90°
2026-04-21 22:47 21.32523 -158.03379 1676 ft 180 kts 90°
2026-04-21 22:47 21.32523 -158.02037 1432 ft 179 kts 90°
2026-04-21 22:48 21.32524 -158.00711 1198 ft 175 kts 91°
2026-04-21 22:48 21.32524 -157.99467 955 ft 160 kts 92°
2026-04-21 22:48 21.32530 -157.98327 734 ft 148 kts 91°
2026-04-21 22:48 21.32539 -157.97254 569 ft 141 kts 92°
2026-04-21 22:49 21.32530 -157.96214 378 ft 139 kts 93°
2026-04-21 22:49 21.32526 -157.95179 235 ft 139 kts 93°
2026-04-21 22:49 21.32526 -157.94148 49 ft 137 kts 94°
2026-04-21 22:49 21.32525 -157.93273 27 ft 86 kts 90°
2026-04-21 22:50 21.32525 -157.92838 27 ft 36 kts 89°
2026-04-21 22:50 21.32527 -157.92557 27 ft 44 kts 89°
2026-04-21 22:50 21.32554 -157.92271 27 ft 28 kts 60°
2026-04-21 22:50 21.32644 -157.92105 26 ft 23 kts 59°
2026-04-21 22:51 21.32708 -157.91989 26 ft 15 kts 56°
2026-04-21 22:51 21.32783 -157.91926 26 ft 11 kts 10°
2026-04-21 22:51 21.32810 -157.91922 26 ft 1 kts
2026-04-21 22:51 21.32825 -157.91923 26 ft 4 kts 352°
2026-04-21 22:52 21.32859 -157.91944 26 ft 7 kts 318°
2026-04-21 22:52 21.32891 -157.91977 26 ft 3 kts 317°
2026-04-21 22:52 21.32896 -157.91982 26 ft 0 kts 319°